STARLINK-30260 (57524 NORAD) Tracking and Keplerian Element Data

This shows tracking and keplerian element data for the satellite.

Feedback or suggestion? Click here.




ElementValue
Catalog57524
NameSTARLINK-30260
Epoch Orbit380
Epoch Day239.16667824
Epoch Year2023
RAAN359.597
Inclination42.9995
Eccentricity0.0001224
Argument of Perigee252.0773
Mean Anonmoly104.049
Mean Motion15.54738456
Decay Rate-0.01622846
L11 57524U 23115D 23239.16667824 -.01622846 00000+0 -26465-1 0 9998
L22 57524 42.9995 359.5970 0001224 252.0773 104.0490 15.54738456 3803



Live tracking and technical data element details for STARLINK-30260 (NORAD 57524). STARLINK-30260 can be tracked NOW for your location showing map with azimuth and elevation plus other details from your city location.







IsCatalogInMostPopularTable: catalog: 57524, numindb: 6
Update: records affected: 1



GetName: 57524 STARLINK-30260

Hit Count: updated at: Tue, 26 Sep 2023 13:03:56 GMT